C/2019 H1 ( NEOWISE )

Japanese version
Home page
Updated on November 9, 2019

---------------------------------------------------------------------

* Profile

Discovery Date April 18, 2019
Magnitude 18 mag
Discoverer Near-Earth Object Wide-field Infrared Survey Explorer

* Pictures

* Orbital Elements

Epoch 2019 Apr. 27.0 TT = JDT 2458600.5
T 2019 Apr. 27.73184 TT                                 Williams
q   1.8447354            (2000.0)            P               Q
z  +0.0043485      Peri.   19.27956     -0.09653729     -0.23286699
 +/-0.0000429      Node   269.18432     -0.99196385     -0.05737579
e   0.9919782      Incl.  104.57858     -0.08178190     +0.97081460
From 134 observations 2019 Apr. 9-July 3, mean residual 0".6.

* Magnitudes Graph

        m1 = 14.5 + 5 log d + 10.0 log r

---------------------------------------------------------------------

The orbital elements are published on M.P.E.C. 2019-Q135.
The magnitudes graphs are made with Comet for Windows.

---------------------------------------------------------------------

Copyright(C) Seiichi Yoshida (comet@aerith.net). All rights reserved.